Flag for Switzerland Weather past 2 weeks in Solothurn, Solothurn, Switzerland

Now
69 °F

Mild.


Feels Like: 69 °F
Forecast: 50 / 74 °F
Wind: 14 mph from West

Location: Grenchen

Current Time: May 30, 2015 at 1:34:07 PM

Latest Report: May 30, 2015 at 1:00 PM


Visibility: N/A

Pressure: 29.98 "Hg

Humidity: 41%

Dew point: 44 °F

Location of SolothurnLocation

Historic Weather in Solothurn — Graph

°F

Solothurn temperature yesterday

Maximum temperature yesterday: 76 °F (at 4:00 PM)
Minimum temperature yesterday: 46 °F (at 4:00 AM)
Average temperature yesterday: 62 °F

Past Weeks' High & Low Weather Summary

 TemperatureHumidityPressure
High76 °F (May 29, 4:00 PM)100% (May 22, 1:00 AM)30.36 "Hg (May 22, 1:00 AM)
Low38 °F (May 22, 5:00 AM)30% (May 29, 6:00 PM)29.73 "Hg (May 18, 8:00 PM)
Average55 °F72%30.08 "Hg
* Reported May 15 12:00 Noon — May 30 12:00 Noon, Solothurn, Weather by CustomWeather, © 2015

Note: Actual official high and low records may vary slightly from our data, if they occured in-between our weather recording intervals... More about our weather records

Advertising

Solothurn weather history for previous 24 hours

 ConditionsComfort  
Time TempWeatherWind HumidityBarometerVisibility
12:00 PM
Sat, May 30
67 °FMild.16 mph46%30.00 "HgN/A
11:00 AM62 °FCool.10 mph60%30.01 "HgN/A
10:00 AM62 °FCool.8 mph63%30.01 "HgN/A
9:00 AM60 °FCool.8 mph65%30.01 "HgN/A
8:00 AM59 °FCool.7 mph64%30.00 "HgN/A
7:00 AM55 °FCool.3 mph76%30.01 "HgN/A
6:00 AM55 °FCool.7 mph72%30.00 "HgN/A
5:00 AM56 °FCool.5 mph70%29.99 "HgN/A
4:00 AM59 °FCool.6 mph61%29.98 "HgN/A
3:00 AM60 °FRefreshingly cool.15 mph56%29.97 "HgN/A
2:00 AM60 °FRefreshingly cool.10 mph55%29.96 "HgN/A
1:00 AM61 °FRefreshingly cool.6 mph54%29.95 "HgN/A
12:00 AM64 °FMild.14 mph44%29.92 "HgN/A
11:00 PM
Fri, May 29
64 °FMild.8 mph48%29.90 "HgN/A
10:00 PM66 °FMild.9 mph45%29.87 "HgN/A
9:00 PM68 °FMild.13 mph46%29.84 "HgN/A
8:00 PM71 °FMild.12 mph41%29.82 "HgN/A
7:00 PM74 °FMild.16 mph32%29.80 "HgN/A
6:00 PM76 °FMild.18 mph30%29.79 "HgN/A
5:00 PM76 °FMild.15 mph32%29.79 "HgN/A
4:00 PM76 °FMild.18 mph32%29.80 "HgN/A
3:00 PM75 °FMild.17 mph34%29.82 "HgN/A
2:00 PM73 °FMild.17 mph39%29.85 "HgN/A
1:00 PM70 °FMild.12 mph38%29.88 "HgN/A
Weather by CustomWeather, © 2015

See weather overviewHow to use our weather pages